Date String (YYYY-MM-DD hh:mm:ss) UTC,Instrument flags,absolute air pressure of the measurement (hPa),sample flow rate (lpm),inlet stack bypass flow (lpm),air temperature of the measurement (°C),ambient temperature measured by the external sensor (°C),aerosol sample conditioner tube jacket temperature (°C),OPC LED temperature (°C),internal box temperature (°C),relative humidity of the measurement (%),span deviation,mass concentration of particles derived from Lorenz-Mie calculation of OPC scattering (μg/m³),mass concentration of particles derived from Lorenz-Mie calculation of OPC scattering (μg/m³),mass concentration of particles derived from Lorenz-Mie calculation of OPC scattering (μg/m³)
DateTimeUTC,F1_M11,P_M11,Q1_M11,Q2_M11,T1_M11,T2_M11,T3_M11,T4_M11,T5_M11,U1_M11,ZSPAN_M11,X0_M11,X2_M11,X1_M11
2024-01-30 21:00:00,SystemResetWarning,0833.1,4.99,000.00,026.3,025.5,000.0,034.3,027.8,12.4,0000.0,0007.33,0003.84,0003.57
2024-01-30 21:01:00,SystemResetWarning,0833.1,5.00,000.00,026.3,025.6,000.0,034.4,027.8,12.3,0000.0,0007.30,0003.72,0003.48
2024-01-30 21:02:00,SystemResetWarning,0833.1,5.00,000.00,026.3,025.6,000.0,034.4,027.8,12.3,0000.0,0007.03,0003.59,0003.36
2024-01-30 21:03:00,SystemResetWarning,0833.1,5.00,000.00,026.4,025.7,000.0,034.4,027.9,12.2,0000.0,0006.79,0003.46,0003.23
2024-01-30 21:04:00,SystemResetWarning,0833.2,5.00,000.00,026.4,025.7,000.0,034.4,027.9,12.3,0000.0,0006.61,0003.34,0003.11
2024-01-30 21:05:00,SystemResetWarning,0833.1,4.99,000.00,026.4,024.7,000.0,034.4,027.9,12.3,0000.0,0006.77,0003.21,0002.91
2024-01-30 21:06:00,SystemResetWarning,0833.2,5.00,000.00,026.3,023.1,000.0,034.4,027.7,12.3,0000.0,0006.81,0003.08,0002.69
2024-01-30 21:07:00,SystemResetWarning,0833.2,5.00,000.00,026.3,022.8,000.0,034.4,027.5,12.2,0000.0,0006.61,0002.89,0002.49
2024-01-30 21:08:00,SystemResetWarning,0833.0,5.01,000.00,026.1,023.1,000.0,034.4,027.1,12.4,0000.0,0006.61,0002.71,0002.30
2024-01-30 21:09:00,SystemResetWarning,0833.0,5.00,000.00,026.0,023.4,000.0,034.3,027.1,12.5,0000.0,0006.48,0002.58,0002.14
2024-01-30 21:10:00,SystemResetWarning,0833.0,5.00,000.00,026.0,023.7,000.0,034.3,027.1,12.6,0000.0,0006.08,0002.37,0001.96
2024-01-30 21:11:00,SystemResetWarning,0833.0,4.99,000.00,026.0,024.0,000.0,034.3,027.2,12.7,0000.0,0004.94,0002.20,0001.83
2024-01-30 21:12:00,SystemResetWarning,0833.0,5.00,000.00,026.0,024.3,000.0,034.2,027.3,12.3,0000.0,0004.72,0002.25,0001.85
2024-01-30 21:13:00,SystemResetWarning,0833.1,4.99,000.00,026.0,024.5,000.0,034.2,027.3,12.4,0000.0,0005.06,0002.35,0001.92
2024-01-30 21:14:00,SystemResetWarning,0833.0,5.01,000.00,026.0,024.7,000.0,034.2,027.4,12.6,0000.0,0005.39,0002.44,0002.02
2024-01-30 21:15:00,SystemResetWarning,0833.0,5.01,000.00,026.0,024.8,000.0,034.2,027.5,12.5,0000.0,0005.48,0002.56,0002.15
2024-01-30 21:16:00,SystemResetWarning,0833.1,5.00,000.00,026.1,025.0,000.0,034.2,027.5,12.2,0000.0,0005.08,0002.71,0002.30
2024-01-30 21:17:00,SystemResetWarning,0833.2,4.99,000.00,026.1,025.1,000.0,034.3,027.6,12.2,0000.0,0004.68,0002.84,0002.43
2024-01-30 21:18:00,SystemResetWarning,0833.0,5.00,000.00,026.1,025.2,000.0,034.3,027.6,12.1,0000.0,0004.80,0002.93,0002.52
2024-01-30 21:19:00,SystemResetWarning,0833.1,5.00,000.00,026.2,025.3,000.0,034.3,027.7,12.2,0000.0,0004.87,0003.06,0002.64
2024-01-30 21:20:00,SystemResetWarning,0833.2,5.00,000.00,026.2,025.4,000.0,034.3,027.7,12.0,0000.0,0005.30,0003.16,0002.79
2024-01-30 21:21:00,SystemResetWarning,0833.2,5.00,000.00,026.2,025.4,000.0,034.3,027.7,11.9,0000.0,0005.64,0003.27,0002.92
2024-01-30 21:22:00,SystemResetWarning,0833.1,5.00,000.00,026.3,025.5,000.0,034.3,027.8,11.8,0000.0,0005.89,0003.37,0003.04
2024-01-30 21:23:00,SystemResetWarning,0833.0,4.99,000.00,026.3,025.6,000.0,034.4,027.8,11.6,0000.0,0006.15,0003.45,0003.13
2024-01-30 21:24:00,SystemResetWarning,0833.1,4.99,000.00,026.3,025.6,000.0,034.4,027.8,11.5,0000.0,0007.49,0003.55,0003.20
2024-01-30 21:25:00,SystemResetWarning,0833.2,5.00,000.00,026.4,025.1,000.0,034.4,027.9,11.5,0000.0,0007.57,0003.64,0003.27
2024-01-30 21:26:00,SystemResetWarning,0833.3,5.00,000.00,026.3,023.3,000.0,034.4,027.7,11.6,0000.0,0007.76,0003.72,0003.33
2024-01-30 21:27:00,SystemResetWarning,0833.2,5.00,000.00,026.2,022.8,000.0,034.3,027.5,11.7,0000.0,0008.60,0003.78,0003.38
2024-01-30 21:28:00,SystemResetWarning,0833.2,5.01,000.00,026.1,023.0,000.0,034.3,027.1,11.5,0000.0,0009.38,0003.81,0003.41
2024-01-30 21:29:00,SystemResetWarning,0833.1,5.01,000.00,026.0,023.3,000.0,034.3,027.0,11.6,0000.0,0009.50,0003.86,0003.45
2024-01-30 21:30:00,SystemResetWarning,0833.0,4.99,000.00,026.0,023.6,000.0,034.3,027.1,11.5,0000.0,0009.68,0003.89,0003.46
2024-01-30 21:31:00,SystemResetWarning,0833.0,5.00,000.00,026.0,023.9,000.0,034.2,027.2,11.5,0000.0,0009.57,0003.87,0003.46
2024-01-30 21:32:00,SystemResetWarning,0833.0,4.99,000.00,026.0,024.2,000.0,034.2,027.3,11.6,0000.0,0010.17,0003.83,0003.45
2024-01-30 21:33:00,SystemResetWarning,0833.2,5.00,000.00,026.0,024.4,000.0,034.2,027.3,11.5,0000.0,0010.15,0003.81,0003.45
2024-01-30 21:34:00,SystemResetWarning,0833.0,5.00,000.00,026.0,024.6,000.0,034.2,027.4,11.6,0000.0,0010.18,0003.80,0003.44
2024-01-30 21:35:00,SystemResetWarning,0833.2,5.01,000.00,026.0,024.8,000.0,034.2,027.5,11.4,0000.0,0009.51,0003.77,0003.42
2024-01-30 21:36:00,SystemResetWarning,0833.4,5.00,000.00,026.1,025.0,000.0,034.2,027.5,11.3,0000.0,0009.27,0003.72,0003.39
2024-01-30 21:37:00,SystemResetWarning,0833.2,5.00,000.00,026.1,025.1,000.0,034.2,027.6,11.4,0000.0,0009.58,0003.69,0003.37
2024-01-30 21:38:00,SystemResetWarning,0833.4,5.00,000.00,026.1,025.2,000.0,034.2,027.6,11.5,0000.0,0009.05,0003.68,0003.35
2024-01-30 21:39:00,SystemResetWarning,0833.2,5.00,000.00,026.2,025.3,000.0,034.2,027.7,11.8,0000.0,0008.88,0003.67,0003.33
2024-01-30 21:40:00,SystemResetWarning,0833.1,5.00,000.00,026.2,025.4,000.0,034.3,027.7,11.8,0000.0,0009.19,0003.66,0003.33
2024-01-30 21:41:00,SystemResetWarning,0833.1,5.00,000.00,026.2,025.4,000.0,034.3,027.7,11.8,0000.0,0009.02,0003.64,0003.31
2024-01-30 21:42:00,SystemResetWarning,0833.3,5.00,000.00,026.3,025.5,000.0,034.3,027.8,12.0,0000.0,0009.05,0003.64,0003.28
2024-01-30 21:43:00,SystemResetWarning,0833.1,5.00,000.00,026.3,025.6,000.0,034.3,027.8,12.1,0000.0,0008.89,0003.62,0003.24
2024-01-30 21:44:00,SystemResetWarning,0833.3,4.99,000.00,026.3,025.4,000.0,034.4,027.9,11.9,0000.0,0008.65,0003.58,0003.21
2024-01-30 21:45:00,SystemResetWarning,0833.3,5.00,000.00,026.3,023.5,000.0,034.4,027.7,12.0,0000.0,0008.55,0003.56,0003.18
2024-01-30 21:46:00,SystemResetWarning,0833.0,5.01,000.00,026.2,021.9,000.0,034.3,027.4,11.6,0000.0,0008.48,0003.49,0003.15
2024-01-30 21:47:00,SystemResetWarning,0833.0,5.02,000.00,026.1,021.9,000.0,034.2,027.1,11.7,0000.0,0008.57,0003.47,0003.12
2024-01-30 21:48:00,SystemResetWarning,0833.0,5.00,000.00,025.9,022.2,000.0,034.2,026.8,11.8,0000.0,0008.47,0003.44,0003.08
2024-01-30 21:49:00,SystemResetWarning,0833.0,5.00,000.00,025.8,022.7,000.0,034.2,026.7,11.8,0000.0,0008.31,0003.38,0003.03
2024-01-30 21:50:00,SystemResetWarning,0833.0,5.01,000.00,025.8,023.1,000.0,034.1,026.8,12.0,0000.0,0008.52,0003.37,0002.99
2024-01-30 21:51:00,SystemResetWarning,0833.0,5.00,000.00,025.7,023.4,000.0,034.1,026.9,12.4,0000.0,0008.23,0003.35,0002.94
2024-01-30 21:52:00,SystemResetWarning,0833.4,5.00,000.00,025.8,023.8,000.0,034.1,027.0,12.5,0000.0,0009.09,0003.33,0002.90
2024-01-30 21:53:00,SystemResetWarning,0833.4,5.00,000.00,025.8,024.0,000.0,034.0,027.1,12.5,0000.0,0009.15,0003.33,0002.89
2024-01-30 21:54:00,SystemResetWarning,0833.6,4.99,000.00,025.8,024.3,000.0,034.0,027.2,12.3,0000.0,0008.82,0003.30,0002.86
2024-01-30 21:55:00,SystemResetWarning,0833.6,5.00,000.00,025.8,024.5,000.0,034.0,027.3,12.2,0000.0,0008.73,0003.29,0002.82
2024-01-30 21:56:00,SystemResetWarning,0833.1,5.01,000.00,025.9,024.6,000.0,034.0,027.3,12.2,0000.0,0008.80,0003.28,0002.79
2024-01-30 21:57:00,SystemResetWarning,0833.1,5.00,000.00,025.9,024.8,000.0,034.0,027.4,12.2,0000.0,0009.38,0003.26,0002.75
2024-01-30 21:58:00,SystemResetWarning,0833.2,4.99,000.00,025.9,024.9,000.0,034.0,027.4,12.0,0000.0,0009.27,0003.24,0002.73
2024-01-30 21:59:00,SystemResetWarning,0833.2,4.99,000.00,026.0,025.0,000.0,034.1,027.5,12.0,0000.0,0008.85,0003.21,0002.71
